Wetbulb
53.62 54.12 53.97 51.91 50.41 50.74 50.48 52.34 51.19 53.18 54.13 57.71 60.06 60.93 61.68 62.35 62.99 63.27 63.71 67.38 70.23 71.10 74.66 75.79 75.57 76.12 76.33 75.85 76.28 75.67 76.46 76.24 77.08 78.70 79.24 79.43 79.17 79.69 79.49 77.93 76.09 74.48 73.66 72.86
51.82 53.55 53.01 51.54 52.99 52.13 51.60 51.39 51.85 52.78 53.19 58.77 60.62 63.15 62.07 61.98 62.55 62.61 63.34 64.68 70.18 71.47 72.90 76.08 76.23 77.13 77.38 77.24 77.66 77.50 78.04 77.45 78.53 79.69 79.32 79.13 79.47 79.56 79.17 77.80 75.97 74.58 72.81 71.59
49.18 53.40 53.19 49.64 52.57 53.24 53.90 54.16 53.11 50.45 54.04 57.70 58.35 60.72 61.61 62.58 62.86 63.04 63.42 65.25 67.83 71.11 72.34 75.01 75.47 77.95 77.57 78.42 78.34 78.53 78.82 80.18 79.64 80.48 79.90 79.98 79.67 79.23 78.08 77.07 74.76 73.07 72.27 70.58
50.02 52.42 44.98 54.09 57.69 55.92 54.32 55.16 56.42 56.11 56.40 57.20 60.56 61.90 62.87 62.77 62.90 64.02 65.68 66.76 67.47 70.71 72.72 75.60 75.51 75.71 77.48 77.34 79.07 79.31 79.76 79.36 80.62 80.48 80.46 80.02 78.97 78.31 76.96 74.62 72.14 72.45 71.82 70.00
48.71 48.73 52.40 54.32 56.03 56.86 56.17 56.31 58.08 57.00 58.57 58.28 58.23 58.54 60.70 62.51 64.27 65.10 64.82 66.79 67.69 71.96 73.19 76.93 76.63 78.16 78.14 77.30 78.19 78.49 78.64 79.11 79.71 79.96 79.44 79.31 77.77 76.77 74.55 72.76 71.23 69.80 69.74 68.78
51.54 47.30 46.12 53.98 58.79 60.70 59.82 52.69 58.87 60.00 60.34 58.55 58.17 53.40 57.84 62.89 62.57 64.12 67.41 67.89 68.89 72.83 73.71 75.66 77.22 76.35 76.85 75.59 76.20 76.53 77.60 77.81 79.26 79.24 78.89 77.77 76.68 75.03 74.65 73.41 70.74 69.17 68.24 67.73
50.26 49.39 52.03 58.10 59.01 60.40 51.64 54.07 63.29 63.61 63.82 63.11 59.93 59.27 62.44 66.26 64.97 66.39 68.49 69.33 73.33 73.89 75.29 76.51 76.49 75.97 76.59 76.29 75.39 75.98 76.49 76.57 77.67 78.17 78.41 78.11 77.04 74.95 73.66 72.57 70.51 69.21 67.51 68.90
51.13 48.51 46.18 59.87 59.70 55.63 59.91 63.42 64.09 64.67 64.82 64.56 65.45 61.64 66.36 68.17 68.45 69.14 69.38 71.07 72.87 73.60 74.12 75.54 76.55 76.48 76.83 76.13 77.52 78.22 78.09 77.36 77.52 78.16 76.61 75.38 74.75 73.46 72.28 69.84 67.48 66.77 67.51 68.06
52.92 52.47 60.20 61.10 60.80 62.21 63.00 64.06 64.64 65.33 66.04 66.21 64.79 66.73 68.24 69.05 70.06 70.87 71.42 71.72 72.49 72.89 73.50 74.74 76.28 76.45 76.26 78.66 78.95 78.56 77.32 77.74 77.35 76.01 74.32 74.00 72.63 70.89 69.45 68.34 66.47 66.15 66.73 68.81
57.16 58.37 58.72 60.02 61.94 62.82 64.02 63.65 65.88 67.12 66.54 66.67 66.80 67.61 68.11 68.73 69.27 70.07 71.16 71.60 72.40 72.48 72.64 74.66 76.73 76.79 76.77 76.39 76.95 76.56 76.27 73.91 73.32 72.22 71.03 71.25 70.99 69.75 67.83 67.19 66.80 67.12 67.31 67.67
57.22 58.20 59.01 59.51 60.60 61.80 62.32 63.37 63.83 64.14 64.01 65.64 66.44 66.40 67.20 67.94 68.59 68.76 69.30 69.81 70.99 71.08 71.62 72.41 73.98 74.34 74.87 75.40 76.01 74.39 71.75 70.24 70.02 69.60 69.92 67.55 63.80 64.55 67.84 62.67 62.59 67.98 67.33 68.12
53.04 58.74 58.89 57.27 58.90 60.59 59.25 59.62 60.87 61.41 60.90 61.81 63.81 63.49 64.80 65.98 68.57 68.86 68.73 69.50 69.71 70.62 71.54 72.68 73.37 73.49 74.33 75.19 74.32 72.29 70.94 69.98 70.07 69.47 67.42 66.07 63.54 62.44 45.74 47.53 44.62 44.18 46.37 59.52
56.83 59.93 57.87 57.67 57.42 57.52 56.48 57.77 58.29 58.96 59.44 59.44 60.58 61.12 60.82 61.43 63.06 61.17 67.24 69.19 69.48 70.04 71.00 72.24 72.18 72.32 73.37 74.11 73.70 72.97 72.17 72.09 70.68 69.13 68.44 68.48 68.15 67.27 64.93 53.46 44.47 42.96 43.64 46.60
58.52 57.14 53.86 55.42 54.17 56.52 56.78 57.28 56.74 58.18 59.48 58.99 59.02 60.18 59.80 59.53 59.96 60.97 62.10 64.56 67.65 69.90 70.54 71.09 71.09 70.56 72.15 72.89 72.97 71.91 70.92 61.62 69.39 69.08 68.40 67.49 66.90 66.41 65.84 64.27 62.87 61.63 46.95 50.23
55.10 56.58 56.29 55.32 54.72 55.85 55.36 55.47 55.70 56.37 57.03 57.19 58.83 58.82 61.02 60.54 60.49 60.46 61.15 62.23 63.98 66.55 69.57 70.24 69.84 69.56 70.76 71.65 71.26 70.83 69.07 68.70 68.87 68.21 67.60 65.46 66.56 66.48 65.42 64.64 64.15 62.65 57.11 51.37
52.82 52.38 52.13 51.55 51.53 52.65 53.80 54.46 52.97 55.89 58.22 57.87 59.21 59.74 61.16 61.74 62.13 62.28 62.48 62.90 62.95 63.46 64.87 67.51 69.98 70.05 70.97 71.15 70.47 69.50 68.60 61.57 64.88 66.80 65.70 65.49 65.57 64.82 64.46 64.00 63.01 62.25 60.72 59.84
48.34 48.80 49.98 51.11 52.09 51.78 52.63 54.93 56.26 55.56 56.58 56.56 57.59 59.78 60.24 60.22 60.94 62.23 62.86 63.49 64.02 64.39 65.26 67.04 69.05 70.22 70.44 70.12 69.23 67.53 66.81 66.16 63.37 66.03 65.24 65.57 65.24 64.56 64.01 63.63 62.95 62.75 62.08 60.34
52.99 53.05 52.32 52.55 52.84 53.39 53.73 55.01 56.08 57.80 56.60 57.22 57.98 59.10 59.10 60.18 60.77 61.21 62.53 63.22 64.61 64.58 66.05 67.40 69.16 69.80 68.90 68.67 68.04 66.67 66.13 65.90 65.06 65.19 64.41 64.46 63.93 63.82 63.57 63.37 63.04 61.98 60.28 57.84
53.55 51.66 52.48 54.10 55.22 55.13 56.17 55.88 56.81 58.48 58.91 59.54 60.10 59.42 60.58 60.55 61.56 62.67 63.59 63.25 63.58 62.97 63.74 66.65 62.62 65.90 67.79 66.82 66.34 66.49 65.60 64.53 64.00 63.81 63.77 60.37 63.48 63.71 62.93 62.25 61.58 61.90 60.00 58.60
54.23 55.04 54.65 55.12 55.55 55.52 56.01 58.10 58.60 58.46 59.25 59.13 59.52 59.76 60.19 60.71 61.43 62.67 63.23 62.18 63.53 63.68 65.28 65.67 65.89 66.75 67.07 65.44 63.21 65.10 64.25 63.96 62.60 63.88 62.69 63.78 62.04 61.78 62.34 55.03 61.73 60.14 59.74 60.56
54.43 54.62 54.12 54.08 54.99 56.89 58.00 58.02 57.86 58.31 58.76 60.02 59.82 59.79 59.65 60.62 61.89 61.56 62.38 60.01 63.31 64.44 64.97 61.49 65.64 64.98 65.14 64.14 63.75 64.60 64.55 63.71 61.35 62.08 61.76 62.04 61.69 61.61 61.23 61.01 59.70 59.24 59.05 59.17
54.39 54.74 54.89 55.34 55.82 56.53 57.52 58.17 58.94 59.31 58.99 59.27 60.07 60.30 59.83 60.69 61.16 61.42 62.76 61.21 62.48 55.09 61.52 62.46 62.38 58.34 62.12 58.26 63.33 62.28 62.07 61.27 62.32 62.81 61.96 61.33 60.67 60.48 60.47 60.07 58.96 59.41 59.78 59.22
55.73 55.28 54.93 55.41 55.92 56.24 56.94 56.95 57.21 58.82 59.31 59.23 59.14 58.84 58.27 58.55 59.87 57.91 58.69 61.75 61.26 57.75 59.58 60.46 55.28 55.35 55.17 60.72 62.81 62.42 61.99 60.94 60.29 60.13 60.13 59.67 58.87 58.91 58.81 58.70 58.88 58.77 59.12 59.06
55.96 56.42 56.64 57.00 56.98 56.34 55.45 56.36 56.97 57.51 58.17 59.28 58.95 59.17 58.39 56.77 57.06 59.38 59.78 56.24 54.87 57.04 58.99 58.19 55.65 52.91 50.07 60.01 60.01 60.06 59.88 59.15 58.64 58.37 59.21 49.34 56.16 56.64 57.06 57.27 57.68 58.36 58.51 56.44
56.46 57.51 57.45 56.76 55.40 54.66 56.28 56.62 56.89 56.59 57.29 59.04 58.82 59.02 59.99 59.37 57.78 57.54 59.61 57.63 54.02 56.42 57.29 51.85 52.83 52.57 57.99 59.21 59.28 58.96 58.81 58.54 58.34 58.44 57.59 57.06 56.40 55.89 55.85 55.97 56.33 57.48 57.94 58.10
55.45 54.48 55.03 56.50 54.91 54.67 54.90 55.75 54.62 54.77 55.39 54.82 55.61 56.46 56.69 57.40 57.46 57.73 58.74 56.92 58.41 56.92 58.05 60.46 60.09 59.29 59.47 58.82 58.61 58.03 58.31 58.45 57.83 57.44 55.99 56.25 56.50 56.64 56.08 55.83 55.76 55.68 56.08 56.77
53.66 49.18 53.84 53.68 53.92 53.73 53.83 53.78 53.98 53.45 54.15 54.66 54.20 55.97 56.27 56.85 57.10 56.44 53.56 57.65 57.33 57.18 57.31 57.94 58.19 56.51 58.27 58.21 57.97 57.56 58.38 57.98 54.38 57.35 57.31 57.18 56.96 56.58 56.18 56.09 55.68 55.43 55.56 55.72
MSLP
989.28 988.82 988.63 988.32 988.66 988.98 988.59 988.57 988.26 988.07 988.05 987.94 988.00 988.44 988.94 989.70 990.07 990.27 990.50 991.31 992.47 992.88 993.29 993.97 995.14 996.39 997.47 998.21 999.07 999.93 1001.01 1001.99 1002.86 1003.92 1004.86 1005.60 1006.22 1006.86 1007.69 1008.74 1009.51 1010.05 1010.42 1010.94
989.13 988.98 988.90 988.12 987.84 988.09 988.45 988.68 988.25 988.38 987.57 987.83 988.08 988.10 988.40 988.77 989.55 989.91 990.20 990.38 991.63 992.65 993.13 993.69 994.58 995.60 996.59 997.57 998.18 999.25 1000.03 1000.77 1001.79 1002.88 1003.92 1004.68 1005.46 1006.15 1007.06 1008.05 1009.05 1009.67 1009.73 1010.02
989.36 989.26 988.69 988.26 987.52 987.34 987.32 987.53 988.10 988.06 987.93 988.42 987.72 987.52 987.67 988.20 988.75 989.44 989.93 989.93 990.33 991.82 992.70 993.01 994.12 995.08 995.88 997.01 997.99 998.64 999.45 1000.07 1000.96 1002.00 1002.94 1003.82 1004.82 1005.65 1006.36 1007.11 1008.29 1009.04 1009.98 1010.48
989.58 989.46 988.48 987.55 987.45 987.55 987.56 987.43 987.29 987.21 987.61 987.77 987.63 987.65 987.68 987.84 987.99 988.64 989.10 989.33 989.48 990.71 992.05 992.87 993.80 994.60 995.69 996.64 997.56 998.20 999.04 999.85 1000.49 1001.37 1002.38 1003.40 1004.23 1004.87 1005.83 1006.98 1007.84 1008.62 1009.43 1010.30
989.50 988.86 988.33 988.37 988.66 988.60 988.44 987.73 986.91 986.88 986.80 986.74 987.24 987.38 987.31 987.44 987.41 987.87 988.14 988.41 988.61 989.97 991.25 992.57 993.25 993.88 995.08 996.10 997.29 998.04 998.69 999.67 1000.42 1001.17 1001.99 1003.05 1003.94 1004.72 1005.67 1006.69 1007.44 1008.20 1009.01 1009.53
989.42 988.69 987.62 988.15 989.54 991.03 989.57 988.36 988.03 987.79 987.37 986.64 986.48 986.30 985.88 986.51 986.92 987.22 987.88 988.18 988.41 989.72 990.87 992.18 992.94 993.70 994.90 995.88 996.99 997.79 998.55 999.59 1000.35 1001.16 1001.87 1002.64 1003.72 1004.50 1005.30 1006.26 1007.19 1007.98 1008.60 1009.21
989.47 988.72 988.30 989.24 989.73 990.22 990.71 989.87 989.72 989.36 988.82 987.84 986.37 985.77 986.26 986.18 986.21 986.85 988.04 988.76 988.99 989.93 990.91 992.18 993.02 993.63 994.77 995.56 996.56 997.48 998.43 999.44 1000.33 1001.17 1001.92 1002.54 1003.57 1004.68 1005.50 1006.34 1006.96 1007.53 1008.31 1008.51
989.21 989.48 989.27 990.28 990.21 990.55 991.38 991.02 990.42 989.56 988.91 988.08 987.02 986.25 987.16 987.94 988.06 988.32 988.76 989.16 989.75 990.50 991.85 992.52 993.13 994.12 995.18 995.85 996.66 997.38 998.35 999.36 1000.32 1001.13 1001.91 1002.69 1003.70 1004.68 1005.59 1006.46 1007.26 1007.69 1008.04 1008.22
988.73 989.53 990.90 991.05 991.42 991.66 991.70 991.61 991.25 990.03 988.96 988.14 987.07 987.47 988.41 988.71 989.34 989.73 990.38 990.65 990.60 991.47 992.94 992.91 993.91 994.90 995.59 996.35 997.13 997.78 998.60 999.14 1000.30 1001.57 1002.34 1003.19 1003.92 1004.83 1005.66 1006.44 1006.97 1007.44 1007.68 1007.59
989.77 991.76 991.85 992.56 992.64 992.80 992.65 992.89 992.52 991.11 989.86 989.64 989.53 989.59 989.97 990.34 990.93 991.29 991.56 991.96 992.29 992.81 993.96 993.81 994.65 995.59 996.51 997.34 997.97 998.64 999.27 1000.54 1001.31 1002.24 1003.05 1003.81 1004.41 1005.17 1005.83 1006.45 1006.98 1007.20 1007.30 1007.40
990.84 992.55 993.19 993.42 993.43 993.99 994.20 994.01 994.04 993.59 992.97 992.51 991.99 991.92 992.30 992.76 993.11 993.18 993.22 993.34 993.63 994.41 995.34 995.24 995.86 996.72 997.44 998.17 998.64 999.35 1000.52 1001.43 1002.03 1002.73 1003.37 1004.28 1005.18 1006.03 1006.06 1006.76 1007.25 1007.44 1007.28 1007.16
992.35 992.72 992.93 994.89 995.65 995.65 995.88 995.65 995.38 995.39 995.18 995.68 995.09 994.78 994.91 995.23 995.12 995.18 995.23 995.19 994.86 995.18 995.93 996.28 996.71 997.38 998.06 998.61 999.35 999.95 1000.79 1001.44 1001.71 1002.49 1003.47 1004.32 1005.36 1006.40 1007.44 1007.58 1007.95 1007.74 1007.35 1007.39
993.14 994.40 995.77 996.73 997.44 997.90 997.70 997.17 996.82 996.17 996.89 996.77 996.41 996.32 996.90 996.98 997.12 997.00 996.42 995.74 995.71 996.24 996.91 997.09 997.61 997.90 998.36 999.06 999.51 1000.01 999.96 1000.36 1000.71 1001.31 1002.43 1003.21 1003.78 1004.73 1006.17 1008.00 1007.93 1007.99 1007.98 1008.26
996.41 997.10 998.40 999.01 999.42 999.55 999.25 998.96 998.34 997.21 997.81 997.93 997.67 997.30 997.22 997.00 997.45 997.51 997.61 997.39 996.79 996.58 997.31 997.59 998.12 998.39 998.94 999.21 999.85 999.99 1000.35 1000.67 1000.55 1000.65 1001.37 1002.27 1002.93 1003.64 1004.36 1005.34 1006.48 1007.57 1008.80 1009.08
999.45 999.66 1000.13 1001.11 1001.01 1000.65 1000.40 1000.25 999.76 998.93 998.79 998.83 998.52 998.44 998.06 998.21 998.15 998.23 998.14 997.88 997.16 996.91 997.60 998.24 998.63 999.53 999.04 999.69 1000.17 1000.42 1000.80 1000.69 1000.47 1000.68 1001.17 1001.80 1002.35 1002.65 1003.38 1003.81 1004.62 1006.55 1008.61 1009.48
1001.93 1001.68 1001.86 1001.98 1002.77 1002.59 1002.01 1001.45 1001.47 1000.56 999.93 999.84 999.47 999.74 999.50 999.13 998.94 998.91 998.74 998.46 998.07 998.56 999.24 998.77 998.88 998.46 999.55 1000.24 1000.29 1000.54 1000.70 1001.19 1000.86 1000.86 1001.65 1002.05 1002.22 1002.35 1002.85 1003.29 1004.49 1005.85 1007.08 1008.16
1002.59 1002.83 1002.95 1002.79 1003.78 1003.90 1002.87 1002.39 1001.37 1001.37 1001.13 1001.14 1000.75 1000.17 1000.14 1000.08 999.90 999.76 999.21 998.87 999.14 999.27 999.37 999.41 998.80 999.74 1000.03 1000.10 1000.39 1000.36 1000.82 1001.53 1001.42 1001.04 1001.54 1001.59 1001.93 1002.23 1002.47 1002.73 1003.19 1004.24 1004.93 1006.41
1003.56 1003.75 1004.08 1004.42 1003.96 1003.59 1003.33 1002.60 1001.88 1001.33 1001.50 1001.01 1000.78 1000.64 1000.51 1000.27 1000.11 1000.19 1000.26 999.91 999.83 999.89 1000.12 999.91 999.84 1000.47 1000.58 1000.28 1000.28 1000.21 1000.22 1000.89 1001.16 1000.79 1001.20 1001.98 1002.09 1002.18 1002.56 1002.92 1003.15 1003.53 1005.33 1006.80
1003.82 1004.07 1004.12 1003.77 1003.77 1003.13 1002.44 1002.34 1001.92 1001.68 1001.34 1000.88 1000.44 1000.49 1000.44 1000.49 1000.75 1000.55 1000.00 1000.07 1000.16 1000.44 1001.20 1000.90 1000.85 1001.21 1000.92 1000.83 1001.09 1000.61 1000.04 1000.34 1000.80 1000.99 1001.46 1002.36 1002.59 1002.56 1002.54 1002.86 1003.25 1003.93 1005.45 1006.59
1003.23 1003.76 1003.89 1003.68 1003.19 1003.08 1002.90 1002.36 1001.95 1001.71 1001.55 1001.56 1001.24 1000.95 1000.81 1000.79 1001.04 1000.67 1000.82 1001.19 1001.24 1001.37 1001.50 1001.54 1001.51 1001.69 1001.47 1001.44 1001.74 1000.70 1000.48 1000.73 1001.35 1001.44 1001.96 1002.03 1002.19 1002.60 1003.02 1003.58 1003.70 1004.49 1005.34 1005.84
1002.83 1002.84 1002.76 1002.84 1002.88 1002.48 1002.13 1002.38 1002.20 1002.30 1002.39 1002.07 1001.88 1001.62 1001.39 1001.41 1001.17 1001.08 1000.90 1001.23 1002.14 1001.95 1001.78 1001.88 1001.82 1002.08 1001.23 1001.52 1001.64 1001.08 1000.90 1001.29 1001.56 1001.98 1002.28 1002.28 1002.34 1002.46 1002.56 1003.29 1003.99 1004.60 1005.06 1005.55
1003.01 1002.71 1002.62 1002.51 1002.43 1002.57 1002.43 1002.34 1002.32 1002.47 1002.78 1002.45 1002.05 1001.82 1001.79 1001.75 1001.48 1001.52 1001.45 1001.65 1001.79 1002.23 1002.10 1001.74 1001.96 1002.68 1002.04 1002.58 1001.56 1001.81 1001.44 1001.88 1001.70 1002.01 1002.26 1002.41 1002.41 1002.34 1002.28 1002.90 1003.62 1003.96 1004.17 1004.97
1002.88 1002.80 1003.08 1003.11 1002.95 1002.66 1002.71 1002.74 1002.76 1002.67 1002.69 1002.82 1002.53 1002.40 1002.17 1001.76 1001.59 1002.20 1002.19 1002.42 1002.23 1002.53 1002.50 1002.41 1003.58 1003.51 1003.17 1002.43 1001.59 1001.56 1001.92 1002.22 1002.42 1002.56 1002.67 1002.81 1002.94 1002.89 1002.88 1002.98 1002.99 1003.21 1003.40 1004.21
1003.19 1003.34 1003.31 1002.86 1002.76 1002.77 1002.91 1002.81 1002.61 1002.66 1002.64 1002.73 1002.68 1002.67 1002.35 1002.09 1002.42 1002.12 1002.61 1002.99 1003.16 1003.26 1003.13 1003.27 1003.75 1003.96 1003.97 1002.31 1002.14 1002.29 1002.43 1002.67 1002.87 1002.79 1002.76 1003.39 1003.34 1003.05 1003.00 1003.11 1003.14 1003.32 1003.51 1003.89
1003.95 1003.50 1003.47 1003.25 1002.70 1002.51 1002.66 1002.75 1002.43 1002.32 1002.33 1002.65 1002.68 1002.59 1002.52 1002.44 1002.24 1002.47 1002.65 1003.02 1003.24 1003.32 1003.61 1004.07 1004.02 1004.03 1003.53 1002.65 1002.28 1002.36 1002.38 1002.47 1002.92 1002.75 1002.80 1002.98 1003.19 1003.09 1003.01 1003.12 1003.26 1003.30 1003.22 1003.29
1004.35 1003.86 1004.04 1004.10 1003.83 1003.62 1003.35 1003.04 1002.68 1002.77 1002.62 1002.65 1002.53 1002.48 1002.45 1002.31 1002.52 1002.38 1002.77 1002.75 1002.41 1002.62 1002.37 1002.51 1002.70 1003.19 1002.69 1002.15 1001.88 1001.95 1002.01 1001.91 1002.44 1002.70 1002.95 1002.96 1002.93 1002.93 1003.06 1003.24 1003.30 1003.36 1003.49 1003.60
1005.00 1005.20 1004.70 1004.61 1004.63 1004.59 1004.53 1004.37 1003.79 1003.54 1003.39 1003.80 1003.75 1003.22 1003.06 1002.97 1002.77 1002.92 1002.94 1002.26 1002.24 1002.00 1001.90 1001.67 1001.70 1002.28 1001.89 1001.81 1001.58 1001.82 1001.69 1001.72 1002.00 1002.10 1002.14 1002.25 1002.47 1002.68 1002.75 1002.91 1003.16 1003.27 1003.35 1003.41
Wind_Speed
26 25 21 23 28 27 31 28 29 23 29 25 23 22 19 20 15 16 14 11 13 16 15 17 19 20 20 19 19 20 19 20 19 18 17 16 16 16 15 16 16 17 18 18
21 23 25 24 23 30 29 30 30 29 31 24 27 25 18 17 18 17 17 13 14 16 17 18 19 18 19 19 18 19 18 19 18 17 17 16 15 15 15 15 15 16 19 19
20 22 19 24 26 25 23 28 27 29 29 26 28 25 22 23 21 20 21 20 12 15 18 18 20 17 18 18 16 16 16 15 15 16 17 16 14 14 16 17 15 17 15 15
17 18 25 19 21 22 28 27 26 28 27 27 25 24 24 24 19 20 21 22 15 14 17 18 20 20 18 18 16 16 15 15 13 14 15 14 15 16 14 13 14 14 14 15
17 21 17 19 10 7 5 15 20 26 25 26 27 25 23 28 27 22 18 18 13 14 16 16 18 17 17 17 16 15 15 14 13 14 14 14 15 14 12 13 12 12 12 14
17 23 25 8 16 6 4 12 15 15 20 21 23 19 17 21 28 21 13 13 11 14 17 18 16 19 18 18 17 16 15 15 13 13 13 14 12 11 11 12 11 10 12 13
18 18 19 11 6 4 15 4 12 12 16 21 21 18 18 10 19 14 14 15 10 15 13 14 15 17 17 17 17 16 14 14 13 12 12 12 10 9 10 8 8 10 10 11
19 23 24 5 11 10 7 10 13 14 14 19 23 20 7 4 3 6 9 13 16 14 14 15 14 14 13 13 13 13 13 12 12 11 10 7 9 8 9 9 8 8 10 10
7 7 10 9 8 6 5 8 9 10 9 11 4 10 8 7 8 9 11 12 13 14 14 14 12 12 13 12 11 11 11 12 12 8 8 8 10 9 8 9 8 8 10 9
13 12 13 10 10 6 5 3 11 15 8 4 10 14 14 13 12 12 13 13 14 16 14 14 12 12 12 12 11 11 11 11 9 9 9 8 7 8 7 6 6 4 3 3
18 16 16 15 14 10 10 11 12 16 20 18 14 14 14 12 12 12 12 14 14 15 13 15 14 12 11 9 11 12 11 10 9 9 9 8 7 2 5 4 0 5 8 7
9 17 17 14 11 11 11 12 13 15 17 10 15 16 17 12 12 11 11 12 13 15 14 14 14 13 11 11 11 12 13 11 11 9 9 8 8 8 14 12 5 8 11 5
16 20 20 18 17 15 14 12 11 16 12 13 13 13 12 11 11 12 10 12 13 13 11 12 12 12 11 10 12 12 9 10 10 12 10 9 8 10 9 6 11 11 10 8
18 20 18 13 12 13 13 16 8 14 11 11 12 11 11 11 9 9 9 7 6 11 10 10 10 11 10 10 9 9 9 7 8 8 10 9 9 9 9 9 7 6 8 6
19 19 17 15 13 15 13 14 13 13 11 11 11 10 10 9 9 9 8 7 7 9 6 7 9 10 10 9 9 9 9 8 7 7 7 7 7 7 5 5 8 10 6 5
15 17 17 17 14 11 11 10 8 8 11 9 9 9 7 6 6 6 6 7 5 6 2 3 9 9 10 9 7 8 6 5 4 7 8 7 7 6 5 5 9 8 8 7
13 15 13 14 10 8 10 9 4 6 7 6 5 4 4 7 7 7 7 7 6 4 3 2 8 5 5 6 9 7 7 7 5 5 8 7 6 6 6 7 6 9 9 12
10 9 8 4 5 4 2 7 8 5 4 2 4 6 4 6 6 3 2 4 6 6 7 4 5 3 8 8 8 6 7 8 9 8 6 5 5 4 4 3 3 4 11 11
10 9 5 6 4 5 4 4 1 2 5 5 6 5 6 7 4 4 5 7 6 5 0 2 5 4 6 3 4 6 6 7 5 4 7 6 4 5 5 4 4 6 10 9
12 9 4 9 6 3 4 5 6 4 5 3 3 5 5 6 1 4 7 8 8 5 3 6 4 4 5 5 6 6 3 2 5 3 5 4 3 2 3 1 1 5 8 6
9 7 8 7 7 4 7 6 5 7 5 6 6 6 5 4 5 9 3 6 5 3 5 2 2 4 4 3 5 4 4 3 1 5 4 6 5 6 6 4 4 4 5 6
6 7 8 7 8 7 9 6 6 7 5 6 6 5 4 4 6 7 7 5 6 2 5 3 6 11 7 8 4 7 4 4 1 1 3 4 5 6 6 6 8 9 10 6
6 8 8 5 5 7 8 7 8 8 8 6 7 7 5 5 4 4 3 8 4 9 5 9 8 9 11 8 0 1 1 1 3 2 2 3 4 4 4 5 4 5 4 9
5 5 4 4 8 7 7 6 5 6 5 4 5 4 6 4 3 5 6 7 3 7 6 7 5 7 10 7 3 2 2 3 3 4 2 3 6 6 5 5 6 7 6 3
7 5 7 7 6 4 4 2 4 5 1 4 5 4 5 1 3 5 1 6 5 3 5 5 8 5 6 9 3 4 5 5 4 3 3 4 5 6 5 5 5 6 6 7
11 8 7 8 8 9 9 9 8 6 7 8 6 7 6 5 5 4 5 1 3 6 8 12 9 8 8 9 7 6 8 5 6 8 6 6 7 5 5 5 7 6 7 7
9 11 8 8 9 9 8 9 8 9 6 6 9 9 6 6 5 6 4 6 7 5 4 3 2 7 7 6 6 4 6 6 4 6 5 5 6 7 6 5 5 5 6 6
Wind_Direction
225 258 231 225 217 228 239 233 239 238 236 239 236 229 217 215 240 247 243 182 215 222 208 200 191 191 195 200 195 197 194 198 200 197 202 205 204 203 200 200 198 192 185 186
243 230 240 254 237 217 222 242 250 249 253 245 240 252 238 217 226 246 267 246 203 218 220 195 195 199 189 197 197 197 193 200 195 189 195 203 202 201 201 199 201 201 198 192
233 240 245 235 239 247 245 225 225 238 252 255 257 254 245 233 239 247 252 257 213 216 219 201 197 194 196 192 200 193 204 196 197 186 193 194 195 202 200 200 193 202 208 202
234 230 234 245 244 246 243 250 256 237 235 240 247 254 258 257 240 235 239 251 238 208 209 198 199 193 196 188 193 198 192 199 193 193 189 188 197 208 192 193 199 205 202 208
235 232 234 264 269 296 319 292 247 245 252 231 238 243 238 243 250 246 241 249 223 199 201 192 194 180 182 181 185 192 186 191 198 194 194 197 203 202 185 189 198 204 207 206
208 239 238 209 105 268 302 265 267 297 300 268 235 231 242 231 237 223 246 254 228 190 189 180 189 176 177 181 182 187 186 186 189 192 195 199 195 194 185 189 192 190 206 212
229 239 232 107 94 45 253 302 334 317 303 284 273 237 246 273 217 223 219 230 182 182 176 172 183 177 178 175 179 177 173 175 182 187 194 196 176 177 186 193 184 189 205 211
210 229 234 74 188 231 13 321 316 310 296 285 283 236 183 161 174 207 207 186 177 166 169 167 176 155 171 160 153 155 158 166 173 176 190 167 159 155 167 168 175 184 207 216
231 200 82 53 56 64 9 328 320 322 322 310 333 111 133 139 136 159 168 174 154 145 153 145 141 160 148 138 139 143 153 157 164 135 128 141 149 153 164 170 180 195 207 217
143 122 103 102 84 75 85 31 7 15 24 90 92 99 96 101 115 121 120 121 120 125 133 121 125 127 120 133 141 145 139 118 124 132 127 144 156 154 161 174 186 188 213 206
99 117 105 89 80 85 71 58 60 37 38 42 58 74 81 83 93 93 98 108 113 117 120 111 108 111 113 125 138 125 126 129 132 134 139 118 77 94 149 77 203 195 219 218
210 151 83 100 81 92 89 80 67 80 79 62 67 59 61 58 74 82 98 100 99 97 99 103 107 113 117 126 126 132 136 147 150 137 132 132 135 112 47 74 70 57 49 87
78 92 104 97 86 68 59 59 70 89 59 76 70 83 102 86 64 40 59 84 91 94 102 109 114 112 121 130 140 161 160 136 147 152 143 162 159 157 156 98 78 60 61 85
98 98 85 68 76 69 46 24 34 62 67 61 48 52 53 55 56 57 51 33 47 94 98 113 113 106 124 132 135 132 117 123 169 144 146 155 159 164 170 161 178 149 57 78
73 76 87 80 57 47 46 26 15 34 58 43 51 21 38 45 48 41 26 31 48 67 92 136 119 135 129 144 143 148 165 171 158 146 137 146 160 178 183 165 163 123 128 130
76 71 65 53 59 24 22 39 22 36 32 35 53 36 5 43 61 70 74 49 39 83 160 183 133 119 145 165 168 173 145 66 140 157 132 171 164 182 186 187 124 139 156 157
76 65 57 62 20 37 22 351 17 6 54 30 25 22 72 38 42 23 28 62 54 30 7 220 111 104 148 174 192 165 157 158 303 171 172 171 166 191 185 191 182 169 187 157
79 82 81 70 19 332 336 297 320 23 87 309 54 42 44 43 46 85 149 84 77 44 9 355 89 150 191 185 217 173 198 152 200 186 161 158 184 165 172 197 231 240 115 141
113 103 61 348 330 293 136 155 256 19 20 4 58 61 45 53 28 42 42 75 83 120 308 200 49 247 203 126 265 226 211 170 183 155 102 110 167 223 205 218 244 88 133 149
133 136 181 217 197 115 85 360 117 86 61 38 44 66 67 69 56 111 86 61 42 49 336 114 193 177 176 150 271 256 101 172 82 42 54 225 197 197 54 164 326 125 143 156
107 91 99 84 51 15 94 94 66 58 58 56 53 34 61 83 41 34 69 98 104 71 94 196 183 134 158 161 252 287 141 162 187 154 180 216 218 239 204 147 86 47 166 174
60 74 50 40 67 49 53 55 67 91 64 34 42 56 33 63 55 51 52 72 96 192 301 57 71 16 49 341 225 187 163 156 254 221 261 283 294 287 278 164 185 202 201 148
102 71 59 52 71 65 57 53 52 49 63 46 21 27 17 3 101 120 73 44 347 46 345 70 45 6 350 283 338 301 118 70 247 234 259 271 269 275 276 263 264 245 221 179
63 76 348 20 67 49 44 14 55 51 32 41 32 16 342 61 18 72 69 86 57 13 42 98 87 353 331 291 245 232 194 178 227 252 257 26 295 286 268 260 253 228 260 195
3 36 39 5 1 67 127 9 217 93 38 168 174 202 164 100 49 28 99 108 125 266 95 157 168 203 272 281 269 324 305 251 250 297 276 248 268 285 276 271 270 269 273 243
15 38 64 42 14 8 7 4 358 41 1 12 12 11 15 13 71 312 175 303 203 191 231 172 187 199 237 248 270 216 233 236 185 210 223 269 287 283 280 284 279 251 242 256
74 21 23 20 20 4 14 339 339 348 16 21 338 330 353 337 15 296 328 342 326 332 317 341 254 201 261 285 287 308 275 264 250 273 274 262 231 230 241 253 269 266 261 260